468  
ASUS46 KPDT 232204  
RWRPDT  
PENDLETON REGIONAL WEATHER ROUNDUP  
NATIONAL WEATHER SERVICE PENDLETON OREGON  
300 PM PDT WED APR 23 2014  
 
NOTE: FAIR INDICATES FEW OR NO CLOUDS BELOW 12,000 FEET WITH NO  
SIGNIFICANT WEATHER AND/OR S TO VISIBILITY
.  
 
# INDICATES UNOFFICIAL STATION AND DATA  
 
WAZ520-232310-  
EAST SLOPES OF WASHINGTON CASCADES  
 
CITY SKY/WX TMP DP RH WIND PRES REMARKS
 
#CLE ELUM HS N/A 47 35 63 SW2 29.81F  
#CLE ELUM 2NW N/A 44 36 73 SW2 N/A  
#CLE ELUM LAKE N/A 42 36 79 W1 29.87F  
#CLIFFDEL 2NW N/A 46 41 83 CALM N/A  
#GLENWOOD N/A 46 43 89 S1 29.90F  
#MANASTASH CYN N/A 41 36 82 CALM 29.83F  
#NELSON N/A 45 38 76 CALM 29.90F  
#NELSON 3SW N/A 40 38 92 CALM 30.11S  
#NILE N/A 47 39 74 CALM 29.19F  
#PEOH POINT N/A 39 36 89 W1 N/A  
#RONALD 2NW N/A 44 38 79 SW1 29.72F  
#TEANAWAY 4NE N/A 48 36 63 E1 N/A  
#TROUT LAKE HS N/A 48 45 89 E1 N/A  
#TROUT LAKE 1NE N/A 48 45 89 SW6 29.91F  

 
 
WAZ521-232310-  
SIMCOE HIGHLANDS  
 
CITY SKY/WX TMP DP RH WIND PRES REMARKS
 
#BICKLETON HS N/A 45 33 63 W8 29.88F  
#CENTERVILLE 4W N/A 54 45 71 NW12 29.64F  
#CENTERVILLE 1SWN/A 48 40 74 W1 29.88F  
#GOLDENDALE 1NE N/A 48 39 71 CALM N/A  
#GOLDENDALE 1S N/A 50 43 77 W6 29.86F  
#GOODNOE HILLS N/A 56 44 64 W9 29.83S  
#LYLE 6NE N/A 49 44 83 W5 29.88F  

 
 
WAZ026-232310-  
KITTITAS VALLEY  
 
CITY SKY/WX TMP DP RH WIND PRES REMARKS
 
ELLENSBURG AP CLOUDY 49 38 66 CALM 29.86F  
#ELLENSBURG CWU N/A 47 39 74 CALM 29.84F  
#ELLENSBURG 3NE N/A 45 39 79 SW1 29.87F  
#ELLENSBURG N/A 51 43 74 S2 N/A  
#ELLENSBURG 1E N/A 50 39 66 CALM N/A  
#KITTITAS 3S N/A 46 40 79 N2 29.85F  
#THORP 6N N/A 46 36 68 N5 29.91S  

 
 
WAZ027-232310-  
YAKIMA VALLEY  
 
CITY SKY/WX TMP DP RH WIND PRES REMARKS
 
YAKIMA AIRPORT LGT RAIN 56 38 51 S9 29.86F  
YAKIMA-VAGABOND MOCLDY 54 38 55 SW10 29.87F  
#DONALD 2NE N/A 60 36 41 E3 30.19F  
#GRANDVIEW N/A 49 42 77 CALM 29.91S  
#MABTON N/A 51 44 77 E5 29.89S  
#MOXEE 2E N/A 53 31 43 S13 29.80F  
#NACHES 2SW N/A 52 40 63 S2 29.88S  
#SELAH 8E N/A 49 40 71 S13 N/A WCI 44  
#TERRACE HTS N/A 54 41 61 W1 29.84F  
#TOPPENISH N/A 53 42 66 SE5 29.79F  
#WAPATO 4NE N/A 60 36 41 E3 30.19F  
#WEST VALLEY N/A 52 39 61 S6 29.89F  
#W YAKIMA N/A 54 40 59 W3 29.87F  
#WHITE SWAN 5E N/A 59 42 53 W13 29.87F  
#WILEY CITY 3W N/A 50 35 56 S6 29.88R  

 
 
WAZ028-232310-  
LOWER COLUMBIA BASIN...WASHINGTON  
 
CITY SKY/WX TMP DP RH WIND PRES REMARKS
 
PASCO LGT RAIN 54 40 59 VRB3 29.93S  
PROSSER AWOS N/A 50 45 83 N6 29.93S  
RICHLAND AWOS RAIN 54 39 57 CALM 29.92S  
#BASIN CITY 5SW N/A 49 44 83 CALM 29.91F  
#BENTON CITY N/A 50 42 74 W3 29.82F  
#CONNELL 5N N/A 51 38 61 SW13G29 29.91R  
#ELTOPIA N/A 49 43 80 CALM 29.89F  
#ELTOPIA 6NW N/A 47 40 76 SE1 28.88F  
#KENNEWICK 3S N/A 52 43 71 CALM 29.93S  
#PASCO-BROADMOORN/A 55 40 57 CALM 29.82F  
#PATERSON N/A 54 42 64 SE7 29.89S  
#PROSSER N/A 48 43 83 NE1 29.90F  
#SAGEMOOR 2W N/A 48 42 80 SE1 29.77F  
#TOUCHET 2S N/A 53 42 66 CALM 29.91F  
#WEST PASCO N/A 55 41 59 N1 29.90F  

 
 
WAZ029-232310-  
FOOTHILLS OF THE BLUES...WASHINGTON  
 
CITY SKY/WX TMP DP RH WIND PRES REMARKS
 
WALLA WALLA AP LGT RAIN 49 44 83 E8 29.94F  
#COLLEGE PLACE N/A 52 41 66 N7 29.96S  
#LOWDEN 2SE N/A 51 42 71 NE3 29.90F  
#PLEASANT VIEW 1N/A 48 37 65 S9 29.98R  
#PRESCOTT N/A 49 40 71 SW6 29.94R  
#SUDBURY N/A 51 N/A N/A E8 N/A  
#WHITMAN COLLEGEN/A 47 43 86 E8 29.99F  
#WAITSBURG 8N N/A 48 28 46 S10 29.76  
#WALLA WALLA 5E N/A 47 44 89 NE1 N/A  
#WALLA WALLA U N/A 49 45 86 CALM 29.95S  
#WHITMAN MISSIONN/A 51 43 74 E2 29.95F  

 
 
WAZ030-232310-  
BLUE MOUNTAINS...WASHINGTON  
 
CITY SKY/WX TMP DP RH WIND PRES REMARKS
 

 
 
ORZ009-041-WAZ024-232310-  
COLUMBIA RIVER GORGE  
 
CITY SKY/WX TMP DP RH WIND PRES REMARKS
 
HOOD RIVER AP LGT DRIZZLE 50 46 86 N3 29.91F  
THE DALLES AP MOCLDY 57 44 62 N9 29.89F  
#ARLINGTON AIRPON/A 59 42 53 W12 25.34R  
#ARLINGTON HS N/A 61 42 50 W13 29.80F  
#CELILO DOT N/A 58 41 53 N1 N/A  
#MOSIER 1S N/A 53 40 61 NW10 29.94S  
#MURDOCK N/A 56 47 72 NW7 29.92F  
#RUFUS DOT N/A 41 36 82 CALM N/A  
 

 
 
ORZ510-232310-  
NORTH CENTRAL OREGON  
 
CITY SKY/WX TMP DP RH WIND PRES REMARKS
 
#CHENOWITH 1W N/A 50 43 77 W12 N/A  
#COW CYN RST AREN/A 51 -58 0 SW14 N/A  
#GRASS VALLEY N/A 51 37 59 SW5 N/A  
#GRASS VALLEY 1SN/A 50 39 66 W9 29.93F  
#KENT DOT N/A 49 32 52 SW8 N/A  
#MAUPIN SCHOOL N/A 60 39 46 W5 29.91F  
#MORO SCHOOL N/A 54 42 64 S6 29.90F  
#SHANIKO 5WSW N/A 49 26 40 SW21 N/A WCI 42  
#SHANIKO 4NW N/A 47 34 60 SW8G24 29.88F  
#TYGH VALLEY 2NEN/A 57 41 55 W6 29.88F  
#WASCO DOT N/A 57 39 51 W5 N/A  
#WASCO 5NE N/A 52 43 71 CALM 29.91F  

 
 
ORZ511-232310-  
CENTRAL OREGON  
 
CITY SKY/WX TMP DP RH WIND PRES REMARKS
 
BEND AIRPORT CLOUDY 48 36 63 SW16 29.95S WCI 42  
MADRAS AIRPORT MOCLDY 54 34 47 SW16 29.93F  
REDMOND AIRPORT CLOUDY 52 34 50 SW14 29.92S  
#BEND 6E N/A 48 33 56 CALM 29.91S  
#BEND 1SW N/A 47 38 71 S3 N/A  
#BEND-AWBREY N/A 48 38 68 N6 29.96F  
#BEND-KIM LN N/A 48 39 71 S5 29.91S  
#CROOKED RVR RANN/A 53 37 54 NW3 29.93F  
#CULVER N/A 53 35 50 SW7 29.88F  
#LAKE BILLY CHINN/A 54 14 20 S5 29.97S  
#POWELL BUTTE N/A 52 35 52 W15 29.57F  
#PRINEVILLE AIR N/A 53 38 57 SW13 29.91F  
#PRINEVILLE 3N N/A 52 36 54 S21 29.89F  
#WARM SPRINGS N/A 60 39 46 S5 29.89F  
 
 
ORZ509-232310-  
EAST SLOPES OF OREGON CASCADES  
 
CITY SKY/WX TMP DP RH WIND PRES REMARKS
 
#BLUE BOX PASS N/A 38 -10 12 CALM N/A  
#CAMP SHERMAN N/A 52 38 59 S1 29.93S  
#LA PINE DOT N/A 45 31 58 SW10 N/A  
#LA PINE 4NW N/A 44 35 70 CALM 30.05R  
#LAVA BUTTE DOT N/A 41 36 82 CALM N/A  
#MT BACHELOR-LOWN/A 32 N/A N/A MISG N/A  
#MT BACHELOR-MIDN/A 30 29 96 CALM N/A  
#SISTERS AIRPOR N/A 51 40 66 N12 29.93S  
#SISTERS ODOT N/A 51 N/A N/A CALM N/A  
#SISTERS 3N N/A 54 32 43 S2 29.98S  
#SUNRIVER N/A 44 41 89 SE3 29.89F  
#SUNRIVER AP N/A 42 38 86 W7 29.96S  
#SUTTLE LK DOT N/A 42 38 86 S21 N/A WCI 33  
#TUMALO 3W N/A 48 36 63 S9 29.84R  
#WANOGA BUTTE D N/A 33 33 100 W8 N/A  
 

 
 
ORZ044-232310-  
LOWER COLUMBIA BASIN...OREGON  
 
CITY SKY/WX TMP DP RH WIND PRES REMARKS
 
HERMISTON PTCLDY 58 41 53 VRB5 29.90F  
#BOARDMAN SCHOOLN/A 58 41 53 CALM 29.90S  
#BOARDMAN 8SW N/A 57 41 55 E5 29.89F  
#IONE SCHOOL N/A 52 41 66 S1 29.90R  
#IRRIGON 4NW N/A 56 42 59 E9 N/A  
#UMATILLA N/A 58 39 49 E1 29.88F  

 
 
ORZ507-232310-  
NORTHERN FOOTHILLS OF THE BLUES  
 
CITY SKY/WX TMP DP RH WIND PRES REMARKS
 
PENDLETON AIRPT MOCLDY 56 37 49 SW14 29.89F  
#ADAMS 3WNW N/A 53 41 64 SE1 29.92F  
#ATHENA N/A 51 40 66 CALM 29.94F  
#HELIX SCHOOL N/A 52 39 61 S8 29.92F  
#HELIX 3N N/A 50 39 66 E5 29.88F  
#M-F FERNDALE N/A 51 43 74 CALM 29.92F  
#M-F GROVE ELEM N/A 52 39 61 CALM 29.91F  
#M-FREEWATER 5SEN/A 50 42 74 CALM 29.92F  
#PENDLETON DNTN N/A 58 34 40 W3 29.86F  
#PDT SUNRIDGE N/A 57 40 53 W3 29.91F  
#PENDLETON 7NW N/A 57 41 55 S3 29.87F  
#PILOT ROCK N/A 53 38 57 W2 29.94R  
#TUTUILLA N/A 51 38 61 N1 29.84F  
#UMAPINE 2E N/A 50 44 80 NE8 29.86F  
#WESTON SCHOOL N/A 50 38 63 W2 29.96F  
 

 
 
ORZ508-232310-  
SOUTHERN FOOTHILLS OF THE BLUES  
 
CITY SKY/WX TMP DP RH WIND PRES REMARKS
 
LEXINGTON LGT RAIN 52 45 77 W13 29.93R  
#AJAX N/A 52 36 54 N13 29.91S  
#CONDON SCHOOL N/A 47 39 74 W9 29.88R  
#CONDON 5W N/A 45 37 73 SW10 29.86F  
#FOSSIL SCHOOL N/A 52 35 52 W7 29.88S  
#HEPPNER 4NE N/A 49 38 66 W17G31 29.92S WCI 43  
#LEXINGTON 2SE N/A 54 42 64 W12 29.88S  
#MIKKALO N/A 56 37 49 W13 29.89S  
#OLEX 4N N/A 57 42 57 SW9 29.89F  
#RUGGS 5NE N/A 49 34 56 SW17G26 30.14S WCI 43  
#RUGGS 2SW N/A 48 38 68 W13 29.98R WCI 43  
 

 
 
ORZ502-503-232310-  
BLUE MOUNTAINS  
 
CITY SKY/WX TMP DP RH WIND PRES REMARKS
 
MEACHAM MOCLDY 46 37 71 CALM 29.89F  
#BATTLE MTN DOT N/A 45 31 58 SE6 N/A  
#HARDMAN 10S N/A 42 33 70 SW13 29.98R WCI 35  
#HEPPNER 15SE N/A 48 32 54 SE2 29.79F  
#LADD CYN SMT N/A 52 22 31 SE3 N/A  
#LADD CREEK ODOTN/A 51 33 50 NE8 N/A  
#LONG CREEK HS N/A 47 36 65 SW8 29.87R  
#N POWDER DOT N/A 55 32 41 W1 N/A  
#TOLLGATE 9W N/A 40 38 92 S3 N/A  
#TROY SCHOOL N/A 53 39 59 S7 29.80R  
#UKIAH N/A 51 34 52 SW6 29.98S  
#WESTON 4E N/A 44 39 82 S5 29.89F  

 
 
ORZ505-232310-  
JOHN DAY BASIN  
 
CITY SKY/WX TMP DP RH WIND PRES REMARKS
 
JOHN DAY CLOUDY 52 30 43 SW20G25 29.92S  
#JOHN DAY KJDY N/A 58 52 80 SW5 29.83S  
#DAYVILLE SCHOOLN/A 56 32 40 S7 29.91R  
#MITCHELL SCHOOLN/A 52 37 56 W9 30.00S  
#MONUMENT HS N/A 56 33 42 W7 29.88R  
#MT. VERNON 5SE N/A 49 32 52 S5 29.88S  

 
 
ORZ506-232310-  
OCHOCO AND JOHN DAY HIGHLANDS  
 
CITY SKY/WX TMP DP RH WIND PRES REMARKS
 
#ANTONE N/A 32 N/A N/A CALM N/A  
#BUCK CREEK DOT N/A 51 35 54 SW15 N/A  
#HORSE RIDGE DO N/A 46 32 58 SW13 N/A WCI 40  
#KEYES SMT DOT N/A 45 N/A N/A SW8 N/A  
#PAULINA SCHOOL N/A 52 31 44 SW13 29.93F  
#PINE MTN OBS N/A 34 31 89 SE5 N/A  
#PRAIRIE CITY N/A 51 29 42 SW9 29.91F  
#SENECA 9NW N/A 44 30 58 CALM 30.00R  

 
 
ORZ049-232310-  
GRANDE RONDE VALLEY  
 
CITY SKY/WX TMP DP RH WIND PRES REMARKS
 
LA GRANDE MOCLDY 52 34 50 N15 29.89F  
#COVE N/A 50 37 61 W1 29.83F  
#COVE SCHOOL N/A 49 35 58 CALM 29.89S  
#COVE 6NW N/A 50 34 54 N1 29.99F  
#ELGIN 3N N/A 47 39 74 S6 29.65F  
#ELGIN 1E N/A 45 38 76 CALM N/A  
#IMBLER SCHOOL N/A 46 37 71 CALM 29.87F  
#ISLAND CITY 4N N/A 46 41 83 E2 29.89F  
#LADD CYN DOT N/A 52 31 44 NE8 N/A  
#LA GRANDE ELEM N/A 49 37 63 N5 29.89R  
#UNION 1S N/A 51 34 52 E7 29.85S  

 
 
ORZ050-232310-  
WALLOWA COUNTY  
 
CITY SKY/WX TMP DP RH WIND PRES REMARKS
 
#ENTERPRISE HS N/A 49 27 42 SW5 29.90S  
#IMNAHA SCHOOL N/A 49 36 61 N7 29.82R  
#JOSEPH 3N N/A 49 32 52 SW12 29.92S WCI 44  
#LOSTINE N/A 45 36 70 N7 29.76R  
#MT HOWARD 8000 N/A 28 21 75 S7 29.85R  
#PROMISE 1S N/A 40 35 82 E6 30.07F  
#SHEEP RDG 7000 N/A 29 23 78 CALM 30.06S  
#WALLOWA SCHOOL N/A 44 39 82 W1 30.89S  
 

 
 
CLICK HERE TO GO TO PREVIOUS BULLETINS.

The Nexlab OR Page
The Nexlab WA Page Main Text Page